Alexandria, LA

4:51 AM CST on February 25, 2017 (GMT -0600)
Alexandria International

Weather History for KAEX - March, 2013

Change the Weather History Date:

Tuesday, March 5, 2013

  Actual Average Record
Temperature  
Mean Temperature 57 °F 57 °F  
Max Temperature 68 °F 68 °F 85 °F (1905)
Min Temperature 46 °F 45 °F 25 °F (1960)
Degree Days  
Heating Degree Days 8 9  
Month to date heating degree days 82 48  
Since 1 July heating degree days 1515 1713  
Cooling Degree Days 0 1  
Month to date cooling degree days 0 5  
Year to date cooling degree days 18 22  
Growing Degree Days 8 (Base 50)    
Moisture  
Dew Point 45 °F    
Average Humidity 60    
Maximum Humidity 93    
Minimum Humidity 27    
Precipitation  
Precipitation T in 0.17 in 2.20 in (1919)
Month to date precipitation T 0.84  
Year to date precipitation 16.45 10.52  
Snow  
Snow 0.00 in - T in (1917)
Month to date snowfall 0.0  
Since 1 July snowfall 0.0  
Snow Depth 0.00 in    
Sea Level Pressure  
Sea Level Pressure 30.03 in    
Wind  
Wind Speed 12 mph (West)    
Max Wind Speed 22 mph    
Max Gust Speed 29 mph    
Visibility 10 miles    
Events Rain    
T = Trace of Precipitation, MM = Missing Value Source: NWS Daily Summary

Daily Weather History Graph

Daily Weather History Graph

Search for Another Location

Airport or City:

Trip Planner

Search our weather history database for the weather conditions in past years. The results will help you decide how hot, cold, wet, or windy it might be!

Date:

Astronomy

Mar. 05, 2013 Rise Set
Actual Time 6:32 AM CST 6:11 PM CST
Civil Twilight 6:07 AM CST 6:35 PM CST
Nautical Twilight 5:39 AM CST 7:03 PM CST
Astronomical Twilight 5:11 AM CST 7:32 PM CST
Moon 1:28 AM CST (3/5) 12:07 PM CST (3/5)
Length of Visible Light 12h 28m
Length of Day
11h 39m
Last Quarter, 40% of the Moon is Illuminated
Mar 5
Last Quarter
Mar 11
New
Mar 19
First Quarter
Mar 27
Full
Apr 2
Last Quarter

Hourly Weather History & Observations

Time (CST) Temp. Windchill Dew Point Humidity Pressure Visibility Wind Dir Wind Speed Gust Speed Precip Events Conditions
1:37 AM 64.4 °F - 59.0 °F 83% 29.84 in 10.0 mi South 11.5 mph - N/A   Mostly Cloudy
1:53 AM 64.0 °F - 59.0 °F 84% 29.85 in 10.0 mi South 8.1 mph - N/A   Mostly Cloudy
2:31 AM 64.4 °F - 59.0 °F 83% 29.83 in 10.0 mi South 11.5 mph 19.6 mph N/A   Overcast
2:41 AM 64.4 °F - 59.0 °F 83% 29.82 in 10.0 mi South 13.8 mph 21.9 mph N/A   Overcast
2:53 AM 64.0 °F - 59.0 °F 84% 29.84 in 10.0 mi South 10.4 mph - N/A   Overcast
3:53 AM 64.0 °F - 59.0 °F 84% 29.83 in 10.0 mi South 9.2 mph - N/A   Overcast
4:29 AM 62.6 °F - 60.8 °F 94% 29.84 in 10.0 mi South 10.4 mph - N/A   Overcast
4:53 AM 64.0 °F - 60.1 °F 87% 29.94 in 10.0 mi WNW 9.2 mph 18.4 mph 0.00 in Rain Light Rain
5:53 AM 63.0 °F - 61.0 °F 93% 29.94 in 10.0 mi SSW 4.6 mph - 0.00 in   Overcast
6:05 AM 62.6 °F - 60.8 °F 94% 29.93 in 10.0 mi SSW 5.8 mph - N/A   Overcast
7:53 AM 64.0 °F - 61.0 °F 90% 29.96 in 10.0 mi SW 6.9 mph - N/A   Overcast
8:38 AM 66.2 °F - 60.8 °F 83% 29.97 in 10.0 mi West 9.2 mph 19.6 mph N/A   Overcast
8:53 AM 60.1 °F - 48.9 °F 67% 30.01 in 10.0 mi NW 25.3 mph 38.0 mph N/A   Overcast
9:27 AM 57.2 °F - 44.6 °F 63% 30.04 in 10.0 mi NW 18.4 mph 32.2 mph N/A   Overcast
9:53 AM 57.9 °F - 43.0 °F 58% 30.07 in 10.0 mi WNW 17.3 mph 25.3 mph N/A   Overcast
10:53 AM 62.1 °F - 42.1 °F 48% 30.09 in 10.0 mi NW 19.6 mph 27.6 mph N/A   Clear
11:53 AM 64.9 °F - 42.1 °F 43% 30.10 in 10.0 mi WNW 13.8 mph - N/A   Clear
12:53 PM 64.9 °F - 39.9 °F 40% 30.09 in 10.0 mi NW 17.3 mph - N/A   Clear
1:53 PM 66.0 °F - 36.0 °F 33% 30.09 in 10.0 mi WNW 15.0 mph 25.3 mph N/A   Clear
2:53 PM 68.0 °F - 33.1 °F 27% 30.10 in 10.0 mi NW 19.6 mph 26.5 mph N/A   Clear
3:53 PM 66.0 °F - 35.1 °F 32% 30.11 in 10.0 mi NW 13.8 mph 21.9 mph N/A   Clear
4:53 PM 64.0 °F - 33.1 °F 31% 30.12 in 10.0 mi NW 17.3 mph 24.2 mph N/A   Clear
5:53 PM 60.1 °F - 30.9 °F 33% 30.15 in 10.0 mi NW 11.5 mph - N/A   Clear
6:53 PM 54.0 °F - 32.0 °F 43% 30.18 in 10.0 mi NW 6.9 mph - N/A   Clear
7:53 PM 54.0 °F - 32.0 °F 43% 30.20 in 10.0 mi NW 10.4 mph - N/A   Clear
8:53 PM 53.1 °F - 28.0 °F 38% 30.23 in 10.0 mi NW 13.8 mph - N/A   Clear
9:53 PM 48.9 °F - 27.0 °F 43% 30.26 in 10.0 mi NW 10.4 mph - N/A   Clear
10:53 PM 48.9 °F - 23.0 °F 36% 30.28 in 10.0 mi NNW 12.7 mph 19.6 mph N/A   Clear
11:53 PM 46.0 °F 41.4 °F 24.1 °F 42% 30.29 in 10.0 mi NNW 9.2 mph - N/A   Clear